Home > Time Zones > World Clock > Weather > Serbia > Niš > Past weeks

Flag for Serbia Weather past 2 weeks in Niš, Serbia

Now
70 °F

Passing clouds.


Feels Like: 70 °F
Forecast: 52 / 73 °F
Wind: 5 mph from South

Location: Nis Airport


UV Index: 3 (Moderate)

Visibility: N/A


Pressure: 29.80 "Hg

Humidity: 50%

Dew point: 50 °F

Location of NišLocation

Historic Weather in Niš

°F

Niš temperature yesterday

Maximum temperature yesterday: 66 °F (at 4:00 PM)
Minimum temperature yesterday: 48 °F (at 1:30 AM)
Average temperature yesterday: 55 °F

Past Weeks' High & Low Weather Summary

 TemperatureHumidityPressure
High72 °F (Apr 8, 4:00 PM)100% (Apr 7, 2:00 AM)30.12 "Hg (Apr 7, 2:00 AM)
Low39 °F (Apr 11, 6:30 AM)35% (Apr 8, 3:00 PM)29.53 "Hg (Apr 19, 1:30 AM)
Average50 °F79%29.93 "Hg
* Reported Apr 6 2:00 PM — Apr 21 2:30 PM, Niš, Weather by CustomWeather, © 2014

Note: Actual official high and low records may vary slightly from our data, if they occured in-between our weather recording intervals... More about our weather records

Advertising

Historic Weather Conditions — Data for Previous 24 hours

 ConditionsComfort  
Time TempWeatherWind HumidityBarometerVisibility
2:30 PM
Apr 21
70 °FPassing clouds.7 mph46%29.83 "HgN/A
2:00 PM72 °FPassing clouds.7 mph44%29.83 "HgN/A
1:30 PM70 °FPassing clouds.7 mph46%29.83 "HgN/A
1:00 PM70 °FPassing clouds.10 mph46%29.83 "HgN/A
12:30 PM70 °FPassing clouds.9 mph46%29.83 "HgN/A
12:00 PM70 °FPassing clouds.10 mph53%29.86 "HgN/A
11:30 AM68 °FPassing clouds.3 mph53%29.86 "HgN/A
11:00 AM66 °FPassing clouds.3 mph56%29.86 "HgN/A
10:30 AM64 °FSunny.2 mph56%29.89 "Hg10 mi
10:00 AM63 °FSunny.2 mph59%29.89 "Hg10 mi
9:30 AM61 °FPassing clouds.3 mph68%29.89 "HgN/A
9:00 AM57 °FSunny.2 mph77%29.92 "Hg10 mi
8:30 AM54 °FPassing clouds.3 mph82%29.92 "HgN/A
8:00 AM52 °FSunny.2 mph82%29.92 "Hg10 mi
7:30 AM48 °FSunny.2 mph94%29.92 "Hg10 mi
7:00 AM46 °FPassing clouds.3 mph93%29.92 "HgN/A
6:30 AM45 °FClear.2 mph100%29.92 "Hg10 mi
6:00 AM45 °FPassing clouds.6 mph93%29.89 "HgN/A
5:30 AM46 °FPassing clouds.3 mph87%29.89 "HgN/A
5:00 AM46 °FPassing clouds.3 mph93%29.92 "HgN/A
4:30 AM46 °FClear.1 mph87%29.92 "Hg10 mi
4:00 AM48 °FClear.2 mph87%29.92 "Hg10 mi
3:30 AM48 °FPassing clouds.3 mph87%29.92 "HgN/A
3:00 AM48 °FPassing clouds.3 mph94%29.92 "HgN/A
2:30 AM50 °FClear.3 mph88%29.92 "Hg10 mi
2:00 AM50 °FClear.7 mph88%29.92 "Hg10 mi
1:30 AM50 °FClear.2 mph82%29.92 "Hg10 mi
1:00 AM52 °FClear.6 mph82%29.92 "Hg10 mi
12:30 AM52 °FClear.7 mph88%29.92 "Hg10 mi
12:00 AM52 °FClear.7 mph88%29.92 "Hg10 mi
11:00 PM
Apr 20
54 °FClear.2 mph82%29.92 "Hg10 mi
10:30 PM55 °FPassing clouds.2 mph77%29.89 "HgN/A
10:00 PM57 °FPassing clouds.3 mph72%29.89 "HgN/A
9:30 PM57 °FPassing clouds.5 mph67%29.89 "HgN/A
9:00 PM57 °FPassing clouds.7 mph67%29.89 "HgN/A
8:30 PM57 °FPassing clouds.6 mph67%29.86 "HgN/A
8:00 PM59 °FScattered clouds.6 mph63%29.86 "HgN/A
7:30 PM61 °FScattered clouds.5 mph59%29.86 "HgN/A
7:00 PM63 °FPassing clouds.3 mph56%29.83 "HgN/A
6:30 PM63 °FPassing clouds.3 mph56%29.83 "HgN/A
6:00 PM64 °FPassing clouds.3 mph52%29.83 "HgN/A
5:30 PM64 °FScattered clouds.9 mph56%29.83 "HgN/A
5:00 PM66 °FScattered clouds.7 mph56%29.83 "HgN/A
4:30 PM66 °FScattered clouds.6 mph56%29.83 "HgN/A
4:00 PM66 °FPartly sunny.5 mph56%29.83 "HgN/A
3:30 PM64 °FScattered clouds.3 mph60%29.83 "HgN/A
3:00 PM63 °FScattered clouds.3 mph64%29.86 "HgN/A
Weather by CustomWeather, © 2014

See weather overview